Time,TemperatureF,DewpointF,PressureIn,WindDirection,WindDirectionDegrees,WindSpeedMPH,WindSpeedGustMPH,Humidity,HourlyPrecipIn,Conditions,Clouds,dailyrainin,SoftwareType,DateUTC
2013-09-03 00:03:00,74.0,58.0,30.18,ESE,119,0.0,2.0,58,0.00,,,0.00,,2013-09-03 05:03:00,
2013-09-03 00:23:00,72.0,57.0,30.19,ENE,76,0.0,1.0,59,0.00,,,0.00,,2013-09-03 05:23:00,
2013-09-03 00:34:00,72.0,57.0,30.19,ENE,76,0.0,1.0,59,0.00,,,0.00,,2013-09-03 05:34:00,
2013-09-03 00:52:00,72.0,58.0,30.19,ESE,103,0.0,3.0,61,0.00,,,0.00,,2013-09-03 05:52:00,
2013-09-03 01:02:00,72.0,58.0,30.19,ESE,103,0.0,3.0,61,0.00,,,0.00,,2013-09-03 06:02:00,
2013-09-03 01:12:00,72.0,58.0,30.19,ESE,103,0.0,3.0,61,0.00,,,0.00,,2013-09-03 06:12:00,
2013-09-03 01:22:00,71.0,58.0,30.19,East,86,0.0,1.0,63,0.00,,,0.00,,2013-09-03 06:22:00,
2013-09-03 01:32:00,71.0,58.0,30.19,East,86,0.0,1.0,63,0.00,,,0.00,,2013-09-03 06:32:00,
2013-09-03 01:52:00,70.0,57.0,30.19,East,86,0.0,0.0,64,0.00,,,0.00,,2013-09-03 06:52:00,
2013-09-03 02:02:00,70.0,57.0,30.19,East,86,0.0,0.0,64,0.00,,,0.00,,2013-09-03 07:02:00,
2013-09-03 02:12:00,70.0,57.0,30.19,East,86,0.0,0.0,64,0.00,,,0.00,,2013-09-03 07:12:00,
2013-09-03 02:22:00,68.0,56.0,30.19,East,86,0.0,0.0,66,0.00,,,0.00,,2013-09-03 07:22:00,
2013-09-03 02:32:00,68.0,56.0,30.19,East,86,0.0,0.0,66,0.00,,,0.00,,2013-09-03 07:32:00,
2013-09-03 02:52:00,67.0,56.0,30.20,East,86,0.0,0.0,68,0.00,,,0.00,,2013-09-03 07:52:00,
2013-09-03 03:03:00,67.0,56.0,30.20,East,86,0.0,0.0,68,0.00,,,0.00,,2013-09-03 08:03:00,
2013-09-03 03:22:00,66.0,55.0,30.20,East,86,0.0,0.0,68,0.00,,,0.00,,2013-09-03 08:22:00,
2013-09-03 03:32:00,66.0,55.0,30.20,East,86,0.0,0.0,68,0.00,,,0.00,,2013-09-03 08:32:00,
2013-09-03 03:52:00,66.0,55.0,30.19,East,86,0.0,1.0,68,0.00,,,0.00,,2013-09-03 08:52:00,
2013-09-03 04:01:00,66.0,55.0,30.19,East,86,0.0,1.0,68,0.00,,,0.00,,2013-09-03 09:01:00,
2013-09-03 04:11:00,66.0,55.0,30.19,East,86,0.0,1.0,68,0.00,,,0.00,,2013-09-03 09:11:00,
2013-09-03 04:21:00,65.0,55.0,30.19,ENE,71,0.0,1.0,71,0.00,,,0.00,,2013-09-03 09:21:00,
2013-09-03 04:33:00,65.0,55.0,30.19,ENE,71,0.0,1.0,71,0.00,,,0.00,,2013-09-03 09:33:00,
2013-09-03 04:53:00,64.0,55.0,30.19,ENE,67,0.0,0.0,72,0.00,,,0.00,,2013-09-03 09:53:00,
2013-09-03 05:03:00,64.0,55.0,30.19,ENE,67,0.0,0.0,72,0.00,,,0.00,,2013-09-03 10:03:00,
2013-09-03 05:23:00,63.0,54.0,30.17,ENE,67,0.0,1.0,73,0.00,,,0.00,,2013-09-03 10:23:00,
2013-09-03 05:33:00,63.0,54.0,30.17,ENE,67,0.0,1.0,73,0.00,,,0.00,,2013-09-03 10:33:00,
2013-09-03 05:53:00,64.0,54.0,30.18,ENE,67,0.0,0.0,71,0.00,,,0.00,,2013-09-03 10:53:00,
2013-09-03 06:02:00,64.0,54.0,30.18,ENE,67,0.0,0.0,71,0.00,,,0.00,,2013-09-03 11:02:00,
2013-09-03 06:23:00,63.0,53.0,30.17,ENE,67,0.0,0.0,71,0.00,,,0.00,,2013-09-03 11:23:00,
2013-09-03 06:33:00,63.0,53.0,30.17,ENE,67,0.0,0.0,71,0.00,,,0.00,,2013-09-03 11:33:00,
2013-09-03 06:52:00,63.0,53.0,30.18,ENE,67,0.0,0.0,69,0.00,,,0.00,,2013-09-03 11:52:00,
2013-09-03 07:02:00,63.0,53.0,30.18,ENE,67,0.0,0.0,69,0.00,,,0.00,,2013-09-03 12:02:00,
2013-09-03 07:12:00,63.0,53.0,30.18,ENE,67,0.0,0.0,69,0.00,,,0.00,,2013-09-03 12:12:00,
2013-09-03 07:21:00,63.0,53.0,30.19,ENE,67,1.0,2.0,69,0.00,,,0.00,,2013-09-03 12:21:00,
2013-09-03 07:32:00,63.0,53.0,30.19,ENE,67,1.0,2.0,69,0.00,,,0.00,,2013-09-03 12:32:00,
2013-09-03 07:52:00,63.0,51.0,30.20,ENE,67,0.0,2.0,66,0.00,,,0.00,,2013-09-03 12:52:00,
2013-09-03 08:11:00,63.0,51.0,30.20,ENE,67,0.0,2.0,66,0.00,,,0.00,,2013-09-03 13:11:00,
2013-09-03 08:21:00,62.0,51.0,30.21,ENE,67,0.0,0.0,67,0.00,,,0.00,,2013-09-03 13:21:00,
2013-09-03 08:32:00,62.0,51.0,30.21,ENE,67,0.0,0.0,67,0.00,,,0.00,,2013-09-03 13:32:00,
2013-09-03 08:52:00,64.0,52.0,30.22,ENE,67,0.0,0.0,66,0.00,,,0.00,,2013-09-03 13:52:00,
2013-09-03 09:01:00,64.0,52.0,30.22,ENE,67,0.0,0.0,66,0.00,,,0.00,,2013-09-03 14:01:00,
2013-09-03 09:52:00,73.0,55.0,30.23,ESE,112,1.0,5.0,53,0.00,,,0.00,,2013-09-03 14:52:00,
2013-09-03 10:02:00,73.0,55.0,30.23,ESE,112,1.0,5.0,53,0.00,,,0.00,,2013-09-03 15:02:00,
2013-09-03 10:22:00,75.0,54.0,30.23,East,99,4.0,8.0,48,0.00,,,0.00,,2013-09-03 15:22:00,
2013-09-03 10:34:00,75.0,54.0,30.23,East,99,4.0,8.0,48,0.00,,,0.00,,2013-09-03 15:34:00,
2013-09-03 10:54:00,78.0,54.0,30.24,ESE,120,7.0,11.0,44,0.00,,,0.00,,2013-09-03 15:54:00,
2013-09-03 11:04:00,78.0,54.0,30.24,ESE,120,7.0,11.0,44,0.00,,,0.00,,2013-09-03 16:04:00,
2013-09-03 11:14:00,78.0,54.0,30.24,ESE,120,7.0,11.0,44,0.00,,,0.00,,2013-09-03 16:14:00,
2013-09-03 11:24:00,79.0,55.0,30.25,ESE,121,5.0,10.0,43,0.00,,,0.00,,2013-09-03 16:24:00,
2013-09-03 11:33:00,79.0,55.0,30.25,ESE,121,5.0,10.0,43,0.00,,,0.00,,2013-09-03 16:33:00,
2013-09-03 11:54:00,80.0,55.0,30.25,SE,137,5.0,11.0,42,0.00,,,0.00,,2013-09-03 16:54:00,
2013-09-03 12:03:00,80.0,55.0,30.25,SE,137,5.0,11.0,42,0.00,,,0.00,,2013-09-03 17:03:00,
2013-09-03 12:23:00,82.0,55.0,30.25,ESE,118,4.0,10.0,40,0.00,,,0.00,,2013-09-03 17:23:00,
2013-09-03 12:34:00,82.0,55.0,30.25,ESE,118,4.0,10.0,40,0.00,,,0.00,,2013-09-03 17:34:00,
2013-09-03 12:52:00,82.0,56.0,30.25,SSE,148,2.0,8.0,41,0.00,,,0.00,,2013-09-03 17:52:00,
2013-09-03 13:02:00,82.0,56.0,30.25,SSE,148,2.0,8.0,41,0.00,,,0.00,,2013-09-03 18:02:00,
2013-09-03 13:22:00,84.0,56.0,30.23,ESE,115,1.0,11.0,39,0.00,,,0.00,,2013-09-03 18:22:00,
2013-09-03 13:32:00,84.0,56.0,30.23,ESE,115,1.0,11.0,39,0.00,,,0.00,,2013-09-03 18:32:00,
2013-09-03 13:52:00,84.0,56.0,30.23,ESE,117,5.0,12.0,39,0.00,,,0.00,,2013-09-03 18:52:00,
2013-09-03 14:02:00,84.0,56.0,30.23,ESE,117,5.0,12.0,39,0.00,,,0.00,,2013-09-03 19:02:00,
2013-09-03 14:11:00,84.0,56.0,30.23,ESE,117,5.0,12.0,39,0.00,,,0.00,,2013-09-03 19:11:00,
2013-09-03 14:22:00,86.0,56.0,30.22,ESE,106,5.0,11.0,36,0.00,,,0.00,,2013-09-03 19:22:00,
2013-09-03 14:32:00,86.0,56.0,30.22,ESE,106,5.0,11.0,36,0.00,,,0.00,,2013-09-03 19:32:00,
2013-09-03 14:52:00,84.0,56.0,30.21,East,84,6.0,13.0,38,0.00,,,0.00,,2013-09-03 19:52:00,
2013-09-03 15:02:00,84.0,56.0,30.21,East,84,6.0,13.0,38,0.00,,,0.00,,2013-09-03 20:02:00,
2013-09-03 15:11:00,84.0,56.0,30.21,East,84,6.0,13.0,38,0.00,,,0.00,,2013-09-03 20:11:00,
2013-09-03 15:22:00,85.0,56.0,30.19,ENE,71,4.0,11.0,37,0.00,,,0.00,,2013-09-03 20:22:00,
2013-09-03 15:32:00,85.0,56.0,30.19,ENE,71,4.0,11.0,37,0.00,,,0.00,,2013-09-03 20:32:00,
2013-09-03 15:42:00,85.0,56.0,30.19,ENE,71,4.0,11.0,37,0.00,,,0.00,,2013-09-03 20:42:00,
2013-09-03 15:53:00,86.0,57.0,30.18,SE,139,7.0,15.0,37,0.00,,,0.00,,2013-09-03 20:53:00,
2013-09-03 16:01:00,86.0,57.0,30.18,SE,139,7.0,15.0,37,0.00,,,0.00,,2013-09-03 21:01:00,
2013-09-03 16:22:00,85.0,55.0,30.17,SSE,159,6.0,14.0,36,0.00,,,0.00,,2013-09-03 21:22:00,
2013-09-03 16:34:00,85.0,55.0,30.17,SSE,159,6.0,14.0,36,0.00,,,0.00,,2013-09-03 21:34:00,
2013-09-03 16:54:00,87.0,56.0,30.16,NNW,342,7.0,12.0,35,0.00,,,0.00,,2013-09-03 21:54:00,
2013-09-03 17:04:00,87.0,56.0,30.16,NNW,342,7.0,12.0,35,0.00,,,0.00,,2013-09-03 22:04:00,
2013-09-03 17:23:00,86.0,55.0,30.16,SE,143,3.0,11.0,35,0.00,,,0.00,,2013-09-03 22:23:00,
2013-09-03 17:34:00,86.0,55.0,30.16,SE,143,3.0,11.0,35,0.00,,,0.00,,2013-09-03 22:34:00,
2013-09-03 17:53:00,82.0,57.0,30.19,NE,36,5.0,14.0,42,0.00,,,0.00,,2013-09-03 22:53:00,
2013-09-03 18:04:00,82.0,57.0,30.19,NE,36,5.0,14.0,42,0.00,,,0.00,,2013-09-03 23:04:00,
2013-09-03 18:22:00,79.0,55.0,30.19,North,11,3.0,13.0,44,0.00,,,0.00,,2013-09-03 23:22:00,
2013-09-03 18:34:00,79.0,55.0,30.19,North,11,3.0,13.0,44,0.00,,,0.00,,2013-09-03 23:34:00,
2013-09-03 19:22:00,81.0,56.0,30.14,SE,128,3.0,11.0,42,0.00,,,0.00,,2013-09-04 00:22:00,
2013-09-03 19:32:00,81.0,56.0,30.14,SE,128,3.0,11.0,42,0.00,,,0.00,,2013-09-04 00:32:00,
2013-09-03 19:42:00,81.0,56.0,30.14,SE,128,3.0,11.0,42,0.00,,,0.00,,2013-09-04 00:42:00,
2013-09-03 19:52:00,81.0,53.0,30.13,ESE,123,2.0,7.0,38,0.00,,,0.00,,2013-09-04 00:52:00,
2013-09-03 20:01:00,81.0,53.0,30.13,ESE,123,2.0,7.0,38,0.00,,,0.00,,2013-09-04 01:01:00,
2013-09-03 20:22:00,79.0,53.0,30.13,ESE,115,2.0,4.0,40,0.00,,,0.00,,2013-09-04 01:22:00,
2013-09-03 20:32:00,79.0,53.0,30.13,ESE,115,2.0,4.0,40,0.00,,,0.00,,2013-09-04 01:32:00,
2013-09-03 20:42:00,79.0,53.0,30.13,ESE,115,2.0,4.0,40,0.00,,,0.00,,2013-09-04 01:42:00,
2013-09-03 20:53:00,77.0,54.0,30.13,ENE,72,0.0,4.0,45,0.00,,,0.00,,2013-09-04 01:53:00,
2013-09-03 21:02:00,77.0,54.0,30.13,ENE,72,0.0,4.0,45,0.00,,,0.00,,2013-09-04 02:02:00,
2013-09-03 21:11:00,77.0,54.0,30.13,ENE,72,0.0,4.0,45,0.00,,,0.00,,2013-09-04 02:11:00,
2013-09-03 21:22:00,77.0,54.0,30.14,ESE,111,4.0,6.0,45,0.00,,,0.00,,2013-09-04 02:22:00,
2013-09-03 21:32:00,77.0,54.0,30.14,ESE,111,4.0,6.0,45,0.00,,,0.00,,2013-09-04 02:32:00,
2013-09-03 21:43:00,77.0,54.0,30.14,ESE,111,4.0,6.0,45,0.00,,,0.00,,2013-09-04 02:43:00,
2013-09-03 21:52:00,76.0,54.0,30.15,ESE,121,2.0,6.0,46,0.00,,,0.00,,2013-09-04 02:52:00,
2013-09-03 22:03:00,76.0,54.0,30.15,ESE,121,2.0,6.0,46,0.00,,,0.00,,2013-09-04 03:03:00,
2013-09-03 22:22:00,75.0,52.0,30.16,East,101,2.0,7.0,44,0.00,,,0.00,,2013-09-04 03:22:00,
2013-09-03 22:30:00,75.0,51.0,30.18,East,97,2.0,10.0,43,0.00,,,0.00,,2013-09-04 03:30:00,
2013-09-03 22:35:00,75.0,52.0,30.16,East,101,2.0,7.0,44,0.00,,,0.00,,2013-09-04 03:35:00,
2013-09-03 22:54:00,75.0,51.0,30.18,East,97,2.0,10.0,43,0.00,,,0.00,,2013-09-04 03:54:00,
2013-09-03 23:04:00,75.0,51.0,30.18,East,97,2.0,10.0,43,0.00,,,0.00,,2013-09-04 04:04:00,
2013-09-03 23:14:00,75.0,51.0,30.18,East,97,2.0,10.0,43,0.00,,,0.00,,2013-09-04 04:14:00,
2013-09-03 23:24:00,75.0,51.0,30.18,East,97,2.0,10.0,43,0.00,,,0.00,,2013-09-04 04:24:00,
2013-09-03 23:54:00,74.0,50.0,30.20,ENE,61,1.0,6.0,43,0.00,,,0.00,,2013-09-04 04:54:00,